Time,TemperatureF,DewpointF,PressureIn,WindDirection,WindDirectionDegrees,WindSpeedMPH,WindSpeedGustMPH,Humidity,HourlyPrecipIn,Conditions,Clouds,dailyrainin,SoftwareType,DateUTC
2014-08-20 00:01:00,83.4,70.0,29.31,South,180,9.3,22.0,64,0.00,,,0.00,Rainwise IP-100,2014-08-20 05:01:00,
2014-08-20 00:06:00,83.3,70.0,29.31,South,180,8.9,18.0,64,0.00,,,0.00,Rainwise IP-100,2014-08-20 05:06:00,
2014-08-20 00:11:00,83.2,70.0,29.31,ESE,112,11.7,15.0,65,0.00,,,0.00,Rainwise IP-100,2014-08-20 05:11:00,
2014-08-20 00:16:00,83.0,70.0,29.30,SSW,202,4.4,15.0,65,0.00,,,0.00,Rainwise IP-100,2014-08-20 05:16:00,
2014-08-20 00:21:00,82.8,70.0,29.30,South,180,6.8,16.0,66,0.00,,,0.00,Rainwise IP-100,2014-08-20 05:21:00,
2014-08-20 00:26:00,82.7,71.0,29.30,SSW,202,14.5,22.0,67,0.00,,,0.00,Rainwise IP-100,2014-08-20 05:26:00,
2014-08-20 00:31:00,82.5,70.0,29.31,SSE,157,6.8,20.0,67,0.00,,,0.00,Rainwise IP-100,2014-08-20 05:31:00,
2014-08-20 00:36:00,82.3,70.0,29.31,SSW,202,11.4,18.0,67,0.00,,,0.00,Rainwise IP-100,2014-08-20 05:36:00,
2014-08-20 00:41:00,82.1,70.0,29.31,SSW,202,6.3,17.0,68,0.00,,,0.00,Rainwise IP-100,2014-08-20 05:41:00,
2014-08-20 00:46:00,81.9,71.0,29.31,SSE,157,12.4,15.0,69,0.00,,,0.00,Rainwise IP-100,2014-08-20 05:46:00,
2014-08-20 00:51:00,81.7,71.0,29.31,WSW,247,5.1,14.0,70,0.00,,,0.00,Rainwise IP-100,2014-08-20 05:51:00,
2014-08-20 00:56:00,81.5,71.0,29.30,SSW,202,10.0,14.0,71,0.00,,,0.00,Rainwise IP-100,2014-08-20 05:56:00,
2014-08-20 01:01:00,81.4,71.0,29.31,ESE,112,4.2,13.0,71,0.00,,,0.00,Rainwise IP-100,2014-08-20 06:01:00,
2014-08-20 01:06:00,81.3,71.0,29.31,South,180,6.1,14.0,72,0.00,,,0.00,Rainwise IP-100,2014-08-20 06:06:00,
2014-08-20 01:11:00,81.1,71.0,29.31,South,180,13.1,16.0,72,0.00,,,0.00,Rainwise IP-100,2014-08-20 06:11:00,
2014-08-20 01:16:00,81.1,71.0,29.31,SSW,202,6.3,14.0,72,0.00,,,0.00,Rainwise IP-100,2014-08-20 06:16:00,
2014-08-20 01:21:00,81.0,71.0,29.31,South,180,16.6,17.0,72,0.00,,,0.00,Rainwise IP-100,2014-08-20 06:21:00,
2014-08-20 01:26:00,80.9,71.0,29.31,SSW,202,11.7,16.0,73,0.00,,,0.00,Rainwise IP-100,2014-08-20 06:26:00,
2014-08-20 01:31:00,80.8,71.0,29.31,SSE,157,11.4,15.0,73,0.00,,,0.00,Rainwise IP-100,2014-08-20 06:31:00,
2014-08-20 01:36:00,80.7,71.0,29.31,SSW,202,4.0,17.0,73,0.00,,,0.00,Rainwise IP-100,2014-08-20 06:36:00,
2014-08-20 01:41:00,80.7,71.0,29.30,SSE,157,15.9,15.9,74,0.00,,,0.00,Rainwise IP-100,2014-08-20 06:41:00,
2014-08-20 01:46:00,80.6,71.0,29.30,WSW,247,6.3,15.0,74,0.00,,,0.00,Rainwise IP-100,2014-08-20 06:46:00,
2014-08-20 01:51:00,80.6,71.0,29.31,SSW,202,7.2,14.0,74,0.00,,,0.00,Rainwise IP-100,2014-08-20 06:51:00,
2014-08-20 01:56:00,80.6,72.0,29.30,SSW,202,7.9,13.0,75,0.00,,,0.00,Rainwise IP-100,2014-08-20 06:56:00,
2014-08-20 02:01:00,80.5,71.0,29.30,South,180,10.0,13.0,74,0.00,,,0.00,Rainwise IP-100,2014-08-20 07:01:00,